CW0677 Weather Reports


time (UTC)temp
C
wind
direction
speed
KPH
gust
KPH
rain 1hr
cm
rain 24hr
cm
rain mn
cm
humidity
%
barometer
mb
20260506124553 12 250 1.6 3.2 0.00 0.00 0.00 88 1020.0
20260506123054 12 0 0.0 3.2 0.00 0.00 0.00 88 1019.9
20260506121553 12 0 0.0 3.2 0.00 0.00 0.00 88 1019.9
20260506120052 12 0 0.0 3.2 0.00 0.00 0.00 88 1019.8
20260506114555 12 233 0.0 4.8 0.00 0.00 0.00 88 1019.6
20260506113104 12 0 0.0 4.8 0.00 0.00 0.00 88 1019.6
20260506111555 12 236 1.6 4.8 0.00 0.00 0.00 88 1019.6
20260506104614 12 230 0.0 6.4 0.00 0.00 0.00 88 1019.4
20260506103056 12 186 1.6 9.7 0.00 0.00 0.00 88 1019.2
20260506101603 12 167 0.0 6.4 0.00 0.00 0.00 87 1019.1
20260506100057 12 207 1.6 6.4 0.00 0.00 0.00 87 1019.1
20260506094559 12 227 0.0 4.8 0.00 0.05 0.00 87 1019.0
20260506093105 12 0 1.6 8.0 0.00 0.05 0.00 87 1019.0
20260506091558 12 238 1.6 8.0 0.00 0.05 0.00 87 1019.1
20260506090103 12 161 0.0 4.8 0.00 0.05 0.00 87 1019.2
20260506084556 12 0 1.6 4.8 0.00 0.18 0.00 87 1019.2
20260506083054 12 147 0.0 3.2 0.00 0.18 0.00 87 1019.3
20260506081552 12 194 0.0 6.4 0.00 0.18 0.00 87 1019.2
20260506073102 12 0 1.6 6.4 0.00 0.18 0.00 87 1018.7
20260506071609 13 0 1.6 8.0 0.00 0.18 0.00 87 1018.5
20260506070103 13 214 1.6 6.4 0.00 0.18 0.00 87 1018.4
20260506044601 13 140 3.2 11.3 0.00 0.51 0.18 86 1017.7
20260506043054 13 204 1.6 12.9 0.00 0.51 0.18 85 1017.4
20260506041605 13 181 1.6 9.7 0.00 0.51 0.18 85 1017.2
20260506040055 13 213 3.2 9.7 0.00 0.51 0.18 84 1017.1
20260506034556 13 248 3.2 20.9 0.00 0.53 0.18 83 1016.9
20260506033110 14 217 6.4 17.7 0.00 0.53 0.18 81 1016.5
20260506031558 15 229 3.2 16.1 0.00 0.53 0.18 79 1016.1
20260506030053 15 217 4.8 12.9 0.00 0.53 0.18 78 1016.0
20260506024555 15 163 3.2 11.3 0.00 0.71 0.18 76 1015.9
20260506023100 15 215 1.6 11.3 0.00 0.71 0.18 75 1015.9
20260506021557 16 209 3.2 11.3 0.00 0.71 0.18 74 1015.7
20260506020051 16 232 4.8 11.3 0.00 0.71 0.18 74 1015.5
20260506014557 16 258 4.8 12.9 0.00 0.89 0.18 72 1015.4
20260506013053 17 240 8.0 14.5 0.00 0.89 0.18 70 1015.4
20260506011552 17 223 4.8 14.5 0.00 0.89 0.18 70 1015.2
20260506010054 17 248 8.0 16.1 0.00 0.89 0.18 71 1015.2
20260506004558 17 265 6.4 16.1 0.00 0.99 0.18 71 1015.3
20260506003053 18 239 6.4 16.1 0.00 0.99 0.18 70 1015.2
20260506001614 18 240 6.4 19.3 0.00 0.99 0.18 69 1015.0
20260505234556 17 289 4.8 16.1 0.00 1.09 0.18 71 1015.0
20260505233057 17 268 4.8 19.3 0.00 1.09 0.18 72 1014.9
20260505231557 17 242 4.8 14.5 0.00 1.09 0.18 72 1015.0
20260505230113 18 217 6.4 16.1 0.00 1.09 0.18 72 1014.9
20260505224555 18 215 4.8 16.1 0.00 1.27 0.18 72 1014.9
20260505223059 18 234 6.4 14.5 0.00 1.27 0.18 71 1015.0
20260505221558 18 240 4.8 11.3 0.00 1.27 0.18 71 1015.1
20260505220100 18 261 0.0 11.3 0.00 1.27 0.18 70 1015.1
20260505214608 18 268 3.2 12.9 0.00 1.27 0.18 72 1015.3
20260505213102 17 299 4.8 12.9 0.00 1.27 0.18 71 1015.4
20260505211631 17 300 4.8 12.9 0.00 1.27 0.18 72 1015.5
20260505210109 17 195 3.2 11.3 0.00 1.27 0.18 73 1015.5
20260505204603 17 279 4.8 16.1 0.00 1.27 0.18 74 1015.5
20260505203056 17 246 0.0 12.9 0.00 1.27 0.18 73 1015.5
20260505201608 17 273 1.6 9.7 0.00 1.27 0.18 74 1015.5
20260505194558 17 300 6.4 14.5 0.00 1.27 0.18 72 1015.4
20260505193057 18 313 3.2 9.7 0.00 1.27 0.18 69 1015.5
20260505191605 17 269 1.6 11.3 0.00 1.27 0.18 72 1015.7
20260505190118 16 262 4.8 14.5 0.00 1.27 0.18 73 1015.7
20260505184607 17 344 3.2 9.7 0.00 1.27 0.18 73 1015.7
20260505183057 17 0 4.8 9.7 0.00 1.27 0.18 72 1015.8
20260505181559 16 344 0.0 6.4 0.00 1.27 0.18 75 1015.7
20260505180058 16 295 3.2 11.3 0.00 1.27 0.18 75 1015.8
20260505174559 16 249 3.2 11.3 0.00 1.27 0.18 76 1015.6
20260505173100 16 351 0.0 3.2 0.00 1.27 0.18 75 1015.5
20260505171559 16 277 0.0 4.8 0.00 1.27 0.18 76 1015.5
20260505170104 15 0 1.6 6.4 0.00 1.27 0.18 79 1015.5
20260505164729 15 0 0.0 4.8 0.00 1.27 0.18 81 1015.6
20260505164609 15 0 0.0 4.8 0.00 1.27 0.18 81 1015.6
20260505163105 14 284 3.2 6.4 0.00 1.27 0.18 83 1015.5
20260505161600 13 346 3.2 6.4 0.00 1.27 0.18 86 1015.4
20260505153108 12 198 0.0 4.8 0.00 1.27 0.18 94 1015.2
20260505151556 12 267 0.0 3.2 0.00 1.27 0.18 95 1015.0
20260505150113 11 0 1.6 3.2 0.00 1.27 0.18 95 1015.1
20260505140105 11 0 0.0 1.6 0.00 1.27 0.18 95 1014.6